Home   Weather   Cambridge   Past weeks

Flag for USA Past Weather in Cambridge, Massachusetts, USA — Yesterday and Last 2 Weeks

Now
58 °F

Passing clouds.


Feels Like: 54 °F
Forecast: 53 / 59 °F
Wind: 17 mph from Northeast

Location: Logan International Airport

Current Time: Sep 30, 2016 at 6:15:27 AM

Latest Report: Sep 30, 2016 at 4:54 AM


Visibility: 10 mi

Pressure: 30.45 "Hg

Humidity: 78%

Dew Point: 51 °F

Location of CambridgeLocation

Past Weather in Cambridge — Graph

°F

Cambridge Temperature Yesterday

Maximum temperature yesterday: 59 °F (at 12:54 PM)
Minimum temperature yesterday: 55 °F (at 5:54 AM)
Average temperature yesterday: 57 °F

High & Low Weather Summary for the Past Weeks

 TemperatureHumidityPressure
High83 °F (Sep 21, 1:54 PM)100% (Sep 19, 12:54 PM)30.51 "Hg (Sep 19, 12:54 PM)
Low48 °F (Sep 26, 5:54 AM)23% (Sep 21, 1:54 PM)29.88 "Hg (Sep 27, 1:54 PM)
Average65 °F70%30.15 "Hg
* Reported Sep 15 4:54 AM — Sep 30 4:54 AM, Cambridge, Weather by CustomWeather, © 2016

Note: Actual official high and low records may vary slightly from our data, if they occured in-between our weather recording intervals... More about our weather records

Advertising

Cambridge Weather History for the Previous 24 Hours

Scroll right to see more
 ConditionsComfort  
Time TempWeatherWind HumidityBarometerVisibility
4:54 AM
Fri, Sep 30
58 °FPassing clouds.17 mph78%30.45 "Hg10 mi
3:54 AM58 °FPassing clouds.20 mph75%30.45 "Hg10 mi
2:54 AM58 °FPassing clouds.17 mph72%30.46 "Hg10 mi
1:54 AM58 °FPassing clouds.17 mph70%30.47 "Hg10 mi
12:54 AM58 °FPassing clouds.20 mph70%30.48 "Hg10 mi
11:54 PM
Thu, Sep 29
58 °FPassing clouds.18 mph75%30.49 "Hg10 mi
10:54 PM58 °FPassing clouds.20 mph75%30.51 "Hg10 mi
9:54 PM57 °FPassing clouds.20 mph78%30.50 "Hg10 mi
8:54 PM57 °FPassing clouds.18 mph78%30.49 "Hg10 mi
7:54 PM57 °FPassing clouds.20 mph78%30.49 "Hg10 mi
6:54 PM56 °FPassing clouds.13 mph77%30.49 "Hg10 mi
5:54 PM56 °FPartly sunny.16 mph75%30.49 "Hg10 mi
4:54 PM57 °FPartly sunny.13 mph72%30.49 "Hg10 mi
3:54 PM58 °FPartly sunny.16 mph72%30.48 "Hg10 mi
2:54 PM58 °FPartly sunny.18 mph70%30.49 "Hg10 mi
1:54 PM58 °FOvercast.20 mph72%30.49 "Hg10 mi
12:54 PM59 °FOvercast.17 mph67%30.50 "Hg10 mi
11:54 AM58 °FMostly cloudy.20 mph72%30.49 "Hg10 mi
10:54 AM57 °FMostly cloudy.16 mph78%30.48 "Hg10 mi
9:54 AM56 °FOvercast.15 mph77%30.47 "Hg10 mi
8:54 AM56 °FOvercast.18 mph72%30.46 "Hg10 mi
7:54 AM56 °FPassing clouds.18 mph75%30.44 "Hg10 mi
6:54 AM55 °FPassing clouds.16 mph80%30.42 "Hg10 mi
Weather by CustomWeather, © 2016

See weather overviewHow to use our weather pages